Regional Weather Roundup
Issued by NWS

Home | Current Version | Previous Version | Graphics & Text | Print | Product List | Glossary On
Versions: 1 2 3 4 5 6 7 8 9 10 11 12 13 14 15 16 17 18 19 20 21 22 23 24 25 26 27 28 29 30 31 32 33 34 35 36 37 38 39 40 41 42 43 44 45 46 47 48 49 50
123
ASUS44 KJAN 241310
RWRMS

MISSISSIPPI HOURLY WEATHER ROUNDUP
NATIONAL WEATHER SERVICE JACKSON MS
800 AM CDT THU APR 24 2014

NOTE: "FAIR: INDICATES FEW OR NO CLOUDS BELOW 12,000 FEET WITH NO
SIGNIFICANT WEATHER AND/OR OBSTRUCTIONS TO VISIBILITY.

MSZ001>002-007>008-010>013-018>021-025>028-034>036-241400-
NORTHWEST MISSISSIPPI

CITY           SKY/WX    TMP DP  RH WIND       PRES   REMARKS
CLARKSDALE       N/A     59  46  63 CALM      29.94S
CLEVELAND      FAIR      61  51  69 S9        29.93R
GREENWOOD      PTSUNNY   63  45  51 SE7       29.94R
GREENVILLE     PTSUNNY   61  51  70 S5        29.93R
GRENADA        FAIR      57  52  82 CALM      29.95R
OLIVE BRANCH   PTSUNNY   57  41  54 S7        29.95R
OXFORD         FAIR      57  39  51 S3        29.97R
TUNICA         MOSUNNY   57  48  72 CALM      29.95R
$$

MSZ003>006-009-014>017-022>024-029>033-037>039-241400-
NORTHEAST MISSISSIPPI

CITY           SKY/WX    TMP DP  RH WIND       PRES   REMARKS
BELMONT        FAIR      55  43  63 SE3       29.97S
COLUMBUS AFB   CLOUDY    56  48  73 SE5       29.98R
CORINTH        FAIR      50  45  81 SE5       29.96S
GOLDN TRIANGLE PTSUNNY   55  46  71 S3        30.00R
STARKVILLE     FAIR      55  50  82 CALM      29.97S
TUPELO         SUNNY     56  47  71 CALM      29.96S
$$

MSZ040-058-241400-
CENTRAL MISSISSIPPI

CITY           SKY/WX    TMP DP  RH WIND       PRES   REMARKS
JACKSON INTL   MOSUNNY   62  56  80 CALM      29.95R
JACKSON HAWKNS MOSUNNY   63  54  72 CALM      29.95S
MERIDIAN KEY   MOSUNNY   59  53  80 CALM      29.97R
MERIDIAN NAS   MOSUNNY   59  50  72 CALM      29.98R
RAYMOND        FAIR      59  55  88 CALM      29.94F
VICKSBURG      SUNNY     63  56  78 SE3       29.94R
$$

MSZ059>079-241400-
SOUTH MISSISSIPPI

CITY           SKY/WX    TMP DP  RH WIND       PRES   REMARKS
BROOKHAVEN     FAIR      61  61 100 CALM      29.98R FOG
HATTIESBURG    SUNNY     63  60  90 CALM      29.98R
MCCOMB         SUNNY     63  61  93 CALM      29.97R FOG
NATCHEZ        CLOUDY    61  57  88 CALM      29.95R
PINE BELT      SUNNY     63  61  94 CALM      29.98R
$$

MSZ080>082-241400-
COASTAL MISSISSIPPI

CITY           SKY/WX    TMP DP  RH WIND       PRES   REMARKS
BAY ST LOUIS   FOG       55  54  94 CALM      29.96R VSB 1/2
BILOXI         SUNNY     70  69  98 CALM      29.97R
PASCAGOULA     FOG       63  63 100 CALM      29.97R VSB 1/4
GULFPORT       PTSUNNY   67  64  90 CALM      29.96R FOG
$$



USA.gov is the U.S. government's official web portal to all federal, state and local government web resources and services.